Flag for U.S.A. Weather past 2 weeks in Macon, Georgia, U.S.A.

Now
69 °F

Sunny.


Feels Like: 69 °F
Forecast: 47 / 68 °F
Wind: 8 mph from North

Location: Middle Georgia Regional Airport

Current Time: Oct 22, 2014 at 6:45:09 PM

Latest Report: Oct 22, 2014 at 5:53 PM


Visibility: 10 mi

Pressure: 30.04 "Hg

Humidity: 38%

Dew point: 42 °F

Location of MaconLocation

Historic Weather in Macon — Graph

°F

Macon temperature yesterday

Maximum temperature yesterday: 80 °F (at 3:53 PM)
Minimum temperature yesterday: 47 °F (at 6:53 AM)
Average temperature yesterday: 61 °F

Past Weeks' High & Low Weather Summary

 TemperatureHumidityPressure
High91 °F (Oct 11, 2:53 PM)100% (Oct 8, 5:53 AM)30.15 "Hg (Oct 8, 5:53 AM)
Low42 °F (Oct 20, 6:53 AM)26% (Oct 11, 2:53 PM)29.77 "Hg (Oct 14, 3:53 PM)
Average67 °F75%30.00 "Hg
* Reported Oct 7 4:53 PM — Oct 22 4:53 PM, Macon, Weather by CustomWeather, © 2014

Note: Actual official high and low records may vary slightly from our data, if they occured in-between our weather recording intervals... More about our weather records

Advertising

Macon weather history for previous 24 hours

 ConditionsComfort  
Time TempWeatherWind HumidityBarometerVisibility
4:53 PM
Oct 22
71 °FSunny.10 mph35%30.03 "Hg10 mi
3:53 PM69 °FSunny.3 mph39%30.04 "Hg10 mi
2:53 PM69 °FSunny.5 mph39%30.04 "Hg10 mi
1:53 PM69 °FSunny.5 mph39%30.05 "Hg10 mi
12:53 PM65 °FSunny.5 mph44%30.08 "Hg10 mi
11:53 AM63 °FSunny.10 mph50%30.09 "Hg10 mi
10:53 AM61 °FSunny.7 mph54%30.09 "Hg10 mi
9:53 AM56 °FSunny.9 mph72%30.09 "Hg10 mi
8:53 AM50 °FSunny.5 mph96%30.08 "Hg10 mi
7:53 AM44 °FClear.3 mph100%30.06 "Hg7 mi
6:53 AM45 °FClear.3 mph100%30.04 "Hg9 mi
5:53 AM46 °FClear.3 mph100%30.02 "Hg9 mi
4:53 AM47 °FClear.5 mph100%30.00 "Hg10 mi
3:53 AM47 °FClear.3 mph100%29.99 "Hg9 mi
2:53 AM49 °FClear.3 mph100%29.99 "Hg8 mi
1:53 AM49 °FClear.3 mph100%29.99 "Hg9 mi
12:53 AM51 °FClear.6 mph100%29.99 "Hg10 mi
11:53 PM
Oct 21
54 °FClear.6 mph97%29.99 "Hg10 mi
10:53 PM54 °FClear.No wind100%29.99 "Hg10 mi
9:53 PM58 °FClear.5 mph93%29.98 "Hg10 mi
8:53 PM60 °FClear.3 mph86%29.96 "Hg10 mi
7:53 PM63 °FSunny.3 mph78%29.94 "Hg10 mi
6:53 PM70 °FSunny.6 mph53%29.92 "Hg10 mi
Weather by CustomWeather, © 2014

See weather overviewHow to use our weather pages